When you browse on this site, cookies collect data to enhance your experience and personalize the content and advertising you see.
Visit our Privacy Policy to learn more. By continuing to use the site, you agree to this use of cookies and data.
  • In Deutschland
  • Länderverzeichnis
  • Für 7 Tage
  • Wassertemperatur
  • Satellitenkarten
  • Wetterkarte
  • Widgets
  • user-avatar
    Anmelden

    Stündliche Wetter Pedro Leopoldo

    Heute, 18 November, Sonntag

    Zeit Temperatur Niederschläge Wind Luftdruck Luftfeuchtigkeit
    00:00 +21°C° 0 mm 3 m/S 695 mmHg 83%
    01:00 +21°C° 0 mm 4 m/S 695 mmHg 84%
    02:00 +21°C° 0 mm 4 m/S 695 mmHg 84%
    03:00 +21°C° 0 mm 4 m/S 694 mmHg 85%
    04:00 +21°C° 0 mm 3 m/S 695 mmHg 85%
    05:00 +21°C° 0 mm 3 m/S 695 mmHg 85%
    06:00 +21°C° 0 mm 3 m/S 695 mmHg 85%
    07:00 +22°C° 0 mm 3 m/S 695 mmHg 80%
    08:00 +24°C° 0 mm 3 m/S 696 mmHg 74%
    09:00 +26°C° 0 mm 4 m/S 696 mmHg 68%
    10:00 +27°C° 0 mm 4 m/S 696 mmHg 63%
    11:00 +28°C° 0 mm 4 m/S 696 mmHg 57%
    12:00 +30°C° 0 mm 4 m/S 696 mmHg 52%
    13:00 +30°C° 0.1 mm 4 m/S 695 mmHg 50%
    14:00 +30°C° 0.1 mm 3 m/S 694 mmHg 49%
    15:00 +31°C° 0.1 mm 3 m/S 694 mmHg 48%
    16:00 +29°C° 0 mm 3 m/S 693 mmHg 54%
    17:00 +28°C° 0 mm 3 m/S 693 mmHg 59%
    18:00 +26°C° 0 mm 3 m/S 693 mmHg 65%
    19:00 +26°C° 0 mm 3 m/S 693 mmHg 68%
    20:00 +25°C° 0 mm 3 m/S 694 mmHg 70%
    21:00 +24°C° 0 mm 3 m/S 694 mmHg 73%
    22:00 +22°C° 0 mm 3 m/S 694 mmHg 76%
    23:00 +22°C° 0 mm 3 m/S 694 mmHg 78%

    Morgen, 19 November, Montag

    Zeit Temperatur Niederschläge Wind Luftdruck Luftfeuchtigkeit
    00:00 +22°C° 0 mm 3 m/S 694 mmHg 80%
    01:00 +21°C° 0 mm 3 m/S 694 mmHg 82%
    02:00 +21°C° 0 mm 3 m/S 693 mmHg 84%
    03:00 +21°C° 0 mm 3 m/S 693 mmHg 86%
    04:00 +21°C° 0 mm 2 m/S 693 mmHg 87%
    05:00 +21°C° 0 mm 2 m/S 693 mmHg 87%
    06:00 +21°C° 0 mm 2 m/S 693 mmHg 88%
    07:00 +23°C° 0 mm 2 m/S 694 mmHg 80%
    08:00 +25°C° 0 mm 2 m/S 694 mmHg 73%
    09:00 +27°C° 0 mm 3 m/S 695 mmHg 65%
    10:00 +28°C° 0 mm 3 m/S 695 mmHg 61%
    11:00 +29°C° 0 mm 3 m/S 694 mmHg 57%
    12:00 +30°C° 0 mm 3 m/S 694 mmHg 53%
    13:00 +30°C° 0.1 mm 3 m/S 693 mmHg 53%
    14:00 +30°C° 0.1 mm 3 m/S 693 mmHg 53%
    15:00 +30°C° 0.1 mm 2 m/S 692 mmHg 53%
    16:00 +29°C° 0.4 mm 2 m/S 692 mmHg 59%
    17:00 +27°C° 0.4 mm 2 m/S 692 mmHg 66%
    18:00 +26°C° 0.4 mm 2 m/S 692 mmHg 73%
    19:00 +25°C° 0.7 mm 2 m/S 693 mmHg 76%
    20:00 +24°C° 0.7 mm 2 m/S 693 mmHg 78%
    21:00 +24°C° 0.7 mm 2 m/S 694 mmHg 81%
    22:00 +23°C° 0.3 mm 2 m/S 694 mmHg 82%
    23:00 +23°C° 0.3 mm 2 m/S 694 mmHg 83%

    übermorgen, 20 November, Dienstag

    Zeit Temperatur Niederschläge Wind Luftdruck Luftfeuchtigkeit
    00:00 +23°C° 0.3 mm 2 m/S 694 mmHg 84%
    01:00 +21°C° 0.5 mm 2 m/S 693 mmHg 85%
    02:00 +21°C° 0.5 mm 2 m/S 693 mmHg 87%
    03:00 +21°C° 0.5 mm 2 m/S 693 mmHg 89%
    04:00 +21°C° 0.4 mm 2 m/S 693 mmHg 89%
    05:00 +21°C° 0.4 mm 2 m/S 693 mmHg 89%
    06:00 +21°C° 0.4 mm 2 m/S 694 mmHg 90%
    07:00 +21°C° 0.2 mm 2 m/S 694 mmHg 88%
    08:00 +23°C° 0.2 mm 2 m/S 695 mmHg 86%
    09:00 +22°C° 0.2 mm 3 m/S 695 mmHg 84%
    10:00 +24°C° 0.2 mm 3 m/S 695 mmHg 82%
    11:00 +24°C° 0.2 mm 3 m/S 695 mmHg 79%
    12:00 +25°C° 0.2 mm 3 m/S 695 mmHg 77%
    13:00 +24°C° 0.3 mm 3 m/S 694 mmHg 78%
    14:00 +24°C° 0.3 mm 3 m/S 694 mmHg 80%
    15:00 +24°C° 0.3 mm 3 m/S 693 mmHg 82%
    16:00 +22°C° 0.5 mm 3 m/S 694 mmHg 83%
    17:00 +22°C° 0.5 mm 3 m/S 694 mmHg 85%
    18:00 +21°C° 0.5 mm 3 m/S 694 mmHg 87%
    19:00 +21°C° 0.9 mm 3 m/S 694 mmHg 88%
    20:00 +20°C° 0.9 mm 3 m/S 695 mmHg 89%
    21:00 +20°C° 0.9 mm 3 m/S 695 mmHg 90%
    22:00 +20°C° 0.4 mm 2 m/S 695 mmHg 90%
    23:00 +20°C° 0.4 mm 2 m/S 695 mmHg 89%

    21 November, Mittwoch

    Zeit Temperatur Niederschläge Wind Luftdruck Luftfeuchtigkeit
    00:00 +19°C° 0.4 mm 2 m/S 695 mmHg 89%
    01:00 +19°C° 0.3 mm 2 m/S 695 mmHg 90%
    02:00 +20°C° 0.3 mm 3 m/S 694 mmHg 91%
    03:00 +20°C° 0.3 mm 3 m/S 694 mmHg 91%
    04:00 +20°C° 0.1 mm 3 m/S 694 mmHg 91%
    05:00 +20°C° 0.1 mm 3 m/S 695 mmHg 91%
    06:00 +20°C° 0.1 mm 3 m/S 695 mmHg 91%
    07:00 +21°C° 0.3 mm 3 m/S 695 mmHg 87%
    08:00 +22°C° 0.3 mm 3 m/S 696 mmHg 84%
    09:00 +24°C° 0.3 mm 3 m/S 696 mmHg 80%
    10:00 +24°C° 0.5 mm 3 m/S 696 mmHg 77%
    11:00 +25°C° 0.5 mm 3 m/S 696 mmHg 73%
    12:00 +26°C° 0.5 mm 3 m/S 695 mmHg 69%
    13:00 +27°C° 0.6 mm 2 m/S 695 mmHg 67%
    14:00 +27°C° 0.6 mm 2 m/S 694 mmHg 65%
    15:00 +27°C° 0.6 mm 1 m/S 694 mmHg 64%
    16:00 +26°C° 0.9 mm 2 m/S 694 mmHg 69%
    17:00 +25°C° 0.9 mm 2 m/S 694 mmHg 75%
    18:00 +22°C° 0.9 mm 3 m/S 694 mmHg 81%
    19:00 +22°C° 0.7 mm 3 m/S 694 mmHg 83%
    20:00 +21°C° 0.7 mm 3 m/S 695 mmHg 85%
    21:00 +20°C° 0.7 mm 3 m/S 695 mmHg 87%
    22:00 +20°C° 0.8 mm 3 m/S 695 mmHg 88%
    23:00 +20°C° 0.8 mm 3 m/S 695 mmHg 89%

    22 November, Donnerstag

    Zeit Temperatur Niederschläge Wind Luftdruck Luftfeuchtigkeit
    00:00 +20°C° 0.8 mm 3 m/S 694 mmHg 90%
    01:00 +20°C° 0.9 mm 3 m/S 694 mmHg 90%
    02:00 +20°C° 0.9 mm 3 m/S 694 mmHg 90%
    03:00 +20°C° 0.9 mm 3 m/S 693 mmHg 91%
    04:00 +20°C° 0.8 mm 3 m/S 694 mmHg 90%
    05:00 +20°C° 0.8 mm 3 m/S 694 mmHg 90%
    06:00 +20°C° 0.8 mm 3 m/S 694 mmHg 90%
    07:00 +20°C° 0.5 mm 3 m/S 694 mmHg 88%
    08:00 +21°C° 0.5 mm 4 m/S 695 mmHg 86%
    09:00 +22°C° 0.5 mm 4 m/S 695 mmHg 84%
    10:00 +23°C° 0.6 mm 4 m/S 695 mmHg 79%
    11:00 +25°C° 0.6 mm 4 m/S 694 mmHg 74%
    12:00 +26°C° 0.6 mm 4 m/S 694 mmHg 69%
    13:00 +27°C° 0.8 mm 4 m/S 694 mmHg 66%
    14:00 +27°C° 0.8 mm 3 m/S 694 mmHg 64%
    15:00 +28°C° 0.8 mm 3 m/S 693 mmHg 61%
    16:00 +26°C° 1.2 mm 3 m/S 693 mmHg 68%
    17:00 +25°C° 1.2 mm 2 m/S 693 mmHg 75%
    18:00 +23°C° 1.2 mm 2 m/S 693 mmHg 81%
    19:00 +21°C° 1 mm 2 m/S 694 mmHg 83%
    20:00 +21°C° 1 mm 3 m/S 694 mmHg 86%
    21:00 +20°C° 1 mm 3 m/S 695 mmHg 88%
    22:00 +20°C° 0.2 mm 3 m/S 694 mmHg 88%
    23:00 +19°C° 0.2 mm 3 m/S 694 mmHg 89%

    23 November, Freitag

    Zeit Temperatur Niederschläge Wind Luftdruck Luftfeuchtigkeit
    00:00 +19°C° 0.2 mm 3 m/S 694 mmHg 90%
    01:00 +19°C° 0.1 mm 3 m/S 694 mmHg 90%
    02:00 +19°C° 0.1 mm 3 m/S 693 mmHg 91%
    03:00 +19°C° 0.1 mm 3 m/S 693 mmHg 91%
    04:00 +19°C° 0.1 mm 3 m/S 693 mmHg 91%
    05:00 +19°C° 0.1 mm 3 m/S 694 mmHg 91%
    06:00 +19°C° 0.1 mm 3 m/S 694 mmHg 90%
    07:00 +20°C° 0.2 mm 3 m/S 694 mmHg 86%
    08:00 +21°C° 0.2 mm 4 m/S 695 mmHg 82%
    09:00 +22°C° 0.2 mm 4 m/S 695 mmHg 77%
    10:00 +23°C° 0.4 mm 4 m/S 695 mmHg 73%
    11:00 +25°C° 0.4 mm 4 m/S 695 mmHg 69%
    12:00 +26°C° 0.4 mm 4 m/S 694 mmHg 64%
    13:00 +26°C° 0.7 mm 4 m/S 694 mmHg 64%
    14:00 +27°C° 0.7 mm 3 m/S 693 mmHg 65%
    15:00 +27°C° 0.7 mm 3 m/S 693 mmHg 65%
    16:00 +25°C° 0.7 mm 3 m/S 693 mmHg 70%
    17:00 +24°C° 0.7 mm 3 m/S 693 mmHg 75%
    18:00 +22°C° 0.7 mm 3 m/S 693 mmHg 79%
    19:00 +22°C° 0.2 mm 4 m/S 693 mmHg 81%
    20:00 +21°C° 0.2 mm 4 m/S 693 mmHg 83%
    21:00 +20°C° 0.2 mm 4 m/S 694 mmHg 85%
    22:00 +20°C° 0.1 mm 4 m/S 694 mmHg 86%
    23:00 +20°C° 0.1 mm 4 m/S 694 mmHg 87%
    Mehr zeigen